"Pseudo-MPEC" for ZTF04Jr

Created 2019 Jul 18 21:07:04 UT using Find_Orb

Click here for an explanation of pseudo-MPECs

 
 Astrometry: 
     ZTF04Jr  C2019 07 05.34233019 42 48.59 -06 15 45.4    ~7607 20.31rUNEOCPI41
     ZTF04Jr  C2019 07 05.36670919 42 48.20 -06 16 39.7    ~7607 20.34rUNEOCPI41
     ZTF04Jr  C2019 07 05.36806919 42 48.20 -06 16 42.9    ~7607 20.44rUNEOCPI41
     ZTF04Jr  C2019 07 05.39154119 42 47.85 -06 17 35.4    ~7607 20.41rUNEOCPI41
     ZTF04Jr  C2019 07 05.43981019 42 47.16 -06 19 23.5    ~7607 20.93gUNEOCPI41
     ZTF04Jr KC2019 07 068ut#v@=RARcC#ag3$*AstrometryLU:GJ0^82^wredacted;UPM)711
     ZTF04Jr KC2019 07 06SI#p!DegY')Gn-QA=EclickBgUZ%g#vn*%!S(LT'(sHbT+/I9:DV711
     ZTF04Jr KC2019 07 06`fwoF]Y3here2cmgpO9%VvxY^-dGVW;forTgU@dexplanationK@711

Station data:
(711) McDonald Observatory, Fort Davis  (N30.671481 W104.021500)  US/Texas.
   0.76-m f/3.0 reflector.
(I41) Palomar Mountain--ZTF  (N33.357340 W116.859780)  US/California. 1.2-m
   f/2.44 Oschin Schmidt + CCD.

Orbital elements:  ZTF04Jr
   Perihelion 2019 May 28.010248 +/- 13.6 TT =  0:14:45 (JD 2458631.510248)
Epoch 2019 Jul  6.0 TT = JDT 2458670.5   Earth MOID: 0.2233   Ma: 0.0145
M  20.31202296 +/- 6                (J2000 ecliptic)          AutoNEOCP
n   0.52095799 +/- 0.027            Peri.  130.97024 +/- 12
a   1.52968113 +/- 0.0529           Node   123.45183 +/- 1.1
e   0.2083246 +/- 0.0405            Incl.    8.89668 +/- 0.6
P   1.89/691.02d           H 22.5   G  0.15   U 10.3  
q 1.21101088 +/- 0.0241    Q 1.84835139 +/- 0.123
From 8 observations 2019 July 5-6 (22.9 hr); mean residual 0".11
Residuals in arcseconds: 
190705 I41  .12+  .18-    190705 I41  .06+  .08+    190706 711  .10+  .10+    
190705 I41  .25-  .18+    190705 I41  .02+  .10-    190706 711  .10-  .09-    
190705 I41  .05+  .02+    190706 711  .00   .01-    

Ephemerides (geocentric):
Date (UTC) HH   RA              Dec         delta   r     elong  mag " sig PA
---- -- -- --  -------------   -----------  ------ ------ -----  --- ---- ---
2019 07 18 21  19 41 12.725   -14 59 13.71  .24932 1.2643 173.6 20.4 90.6  10
2019 07 18 22  19 41 12.372   -15 00 48.96  .24940 1.2644 173.6 20.4 91.1  10
2019 07 18 23  19 41 12.020   -15 02 24.18  .24947 1.2645 173.6 20.4 91.7   9
2019 07 19 00  19 41 11.669   -15 03 59.36  .24955 1.2646 173.6 20.4 92.2   9
2019 07 19 01  19 41 11.318   -15 05 34.49  .24963 1.2647 173.6 20.4 92.7   9
2019 07 19 02  19 41 10.968   -15 07 09.59  .24971 1.2647 173.7 20.4 93.2   9
2019 07 19 03  19 41 10.619   -15 08 44.65  .24978 1.2648 173.7 20.4 93.7   9
2019 07 19 04  19 41 10.270   -15 10 19.67  .24986 1.2649 173.7 20.4 94.2   9
2019 07 19 05  19 41 09.922   -15 11 54.65  .24994 1.2650 173.7 20.4 94.7   9
2019 07 19 06  19 41 09.575   -15 13 29.59  .25002 1.2651 173.7 20.4 95.2   9
2019 07 19 07  19 41 09.228   -15 15 04.49  .25010 1.2652 173.7 20.4 95.8   9
2019 07 19 08  19 41 08.882   -15 16 39.35  .25018 1.2652 173.7 20.4 96.3   9
2019 07 19 09  19 41 08.536   -15 18 14.16  .25026 1.2653 173.8 20.4 96.8   9
2019 07 19 10  19 41 08.192   -15 19 48.94  .25034 1.2654 173.8 20.4 97.3   9
2019 07 19 11  19 41 07.848   -15 21 23.68  .25042 1.2655 173.8 20.4 97.8   9
2019 07 19 12  19 41 07.504   -15 22 58.37  .25050 1.2656 173.8 20.4 98.3   9
2019 07 19 13  19 41 07.162   -15 24 33.02  .25058 1.2656 173.8 20.4 98.9   9
2019 07 19 14  19 41 06.820   -15 26 07.63  .25066 1.2657 173.8 20.4 99.4   9
2019 07 19 15  19 41 06.479   -15 27 42.20  .25074 1.2658 173.8 20.4  100   9
2019 07 19 16  19 41 06.139   -15 29 16.72  .25082 1.2659 173.8 20.4  100   9
2019 07 19 17  19 41 05.799   -15 30 51.20  .25090 1.2660 173.8 20.4  101   9
2019 07 19 18  19 41 05.460   -15 32 25.64  .25098 1.2661 173.9 20.4  101   9
2019 07 19 19  19 41 05.122   -15 34 00.04  .25107 1.2661 173.9 20.4  102   9
2019 07 19 20  19 41 04.785   -15 35 34.39  .25115 1.2662 173.9 20.4  103   9
2019 07 19 21  19 41 04.449   -15 37 08.70  .25123 1.2663 173.9 20.4  103   9
2019 07 19 22  19 41 04.113   -15 38 42.96  .25131 1.2664 173.9 20.4  104   9
2019 07 19 23  19 41 03.778   -15 40 17.18  .25140 1.2665 173.9 20.4  104   9
2019 07 20 00  19 41 03.444   -15 41 51.35  .25148 1.2665 173.9 20.4  105   9
2019 07 20 01  19 41 03.111   -15 43 25.49  .25156 1.2666 173.9 20.4  105   9
2019 07 20 02  19 41 02.779   -15 44 59.57  .25165 1.2667 173.9 20.4  106   9
2019 07 20 03  19 41 02.447   -15 46 33.61  .25173 1.2668 173.9 20.4  106   9
2019 07 20 04  19 41 02.117   -15 48 07.61  .25181 1.2669 173.9 20.4  107   9
2019 07 20 05  19 41 01.787   -15 49 41.56  .25190 1.2670 173.9 20.4  107   9
2019 07 20 06  19 41 01.458   -15 51 15.46  .25198 1.2670 173.9 20.4  108   9
2019 07 20 07  19 41 01.130   -15 52 49.32  .25207 1.2671 173.9 20.4  108   9
2019 07 20 08  19 41 00.803   -15 54 23.13  .25215 1.2672 173.9 20.4  109   9
2019 07 20 09  19 41 00.477   -15 55 56.90  .25224 1.2673 173.9 20.4  109   9
2019 07 20 10  19 41 00.151   -15 57 30.62  .25232 1.2674 173.9 20.4  110   9
2019 07 20 11  19 40 59.827   -15 59 04.29  .25241 1.2675 173.9 20.4  110   9
2019 07 20 12  19 40 59.504   -16 00 37.91  .25249 1.2675 173.9 20.4  111   9
2019 07 20 13  19 40 59.181   -16 02 11.49  .25258 1.2676 173.9 20.4  112   9
2019 07 20 14  19 40 58.860   -16 03 45.02  .25266 1.2677 173.9 20.4  112   9
2019 07 20 15  19 40 58.539   -16 05 18.50  .25275 1.2678 173.9 20.4  113   9
2019 07 20 16  19 40 58.219   -16 06 51.93  .25284 1.2679 173.9 20.4  113   9
2019 07 20 17  19 40 57.901   -16 08 25.32  .25292 1.2680 173.9 20.4  114   9
2019 07 20 18  19 40 57.583   -16 09 58.66  .25301 1.2680 173.9 20.4  114   9
2019 07 20 19  19 40 57.266   -16 11 31.94  .25310 1.2681 173.9 20.4  115   9
2019 07 20 20  19 40 56.950   -16 13 05.18  .25319 1.2682 173.9 20.4  115   9